AirNav   Pilot Hours Calculator
 
 983 users online  

10G Holmes County Airport
Millersburg, Ohio, USA

GOING TO MILLERSBURG?


FAA INFORMATION EFFECTIVE 11 AUGUST 2022

Location

FAA Identifier: 10G
Lat/Long: 40-32-12.1245N 081-57-21.3882W
40-32.202075N 081-57.356470W
40.5367013,-81.9559412
(estimated)
Elevation: 1226.5 ft. / 373.8 m (surveyed)
Variation: 08W (2015)
From city: 2 miles SW of MILLERSBURG, OH
Time zone: UTC -4 (UTC -5 during Standard Time)
Zip code: 44654

Airport Operations

Airport use: Open to the public
Activation date: 03/1962
Control tower: no
ARTCC: INDIANAPOLIS CENTER
FSS: CLEVELAND FLIGHT SERVICE STATION
NOTAMs facility: CLE (NOTAM-D service available)
Attendance: MON-FRI 0800-1900, ALL SAT 1000-1800, ALL SUN 1230-1700
Wind indicator: lighted
Segmented circle: no
Lights: ACTVT MIRL RY 09/27, PAPI RY 27 AND REIL RYS 09 & 27 - 123.4.
Beacon: white-green (lighted land airport)
Operates sunset to sunrise.

Airport Communications

CTAF/UNICOM: 123.0
WX AWOS-3: 128.325 (330-674-6279)
WX AWOS-3 at I40 (14 nm S): 118.875 (740-295-7370)
  • APCH/DEP SVC PRVDD BY INDIANAPOLIS ARTCC ON FREQS 124.45/370.9 (ZANESVILLE RCAG).

Nearby radio navigation aids

VOR radial/distance  VOR name  Freq  Var
BSVr247/26.8BRIGGS VOR/DME112.4004W
MFDr128/35.1MANSFIELD VORTAC108.8003W
ZZVr001/35.9ZANESVILLE VOR/DME114.9506W
APEr057/37.0APPLETON VORTAC116.7006W

Airport Services

Fuel available: 100LL JET-A+
Parking: hangars and tiedowns
Airframe service: MAJOR
Powerplant service: MAJOR
Bottled oxygen: HIGH
Bulk oxygen: NONE

Runway Information

Runway 9/27

Dimensions: 4400 x 75 ft. / 1341 x 23 m
Surface: asphalt, in good condition
Weight bearing capacity: 
Single wheel: 14.0
Double wheel: 25.0
Runway edge lights: medium intensity
RUNWAY 9  RUNWAY 27
Latitude: 40-32.182148N40-32.222002N
Longitude: 081-57.830652W081-56.882287W
Elevation: 1226.5 ft.1183.2 ft.
Traffic pattern: leftleft
Runway heading: 095 magnetic, 087 true275 magnetic, 267 true
Markings: nonprecision, in good conditionnonprecision, in good condition
Visual slope indicator: 2-light PAPI on left (3.00 degrees glide path)
Runway end identifier lights: yesyes
Touchdown point: yes, no lightsyes, no lights
Obstructions: 80 ft. bldg, 1550 ft. from runway, 420 ft. right of centerline, 16:1 slope to clearnone

Airport Ownership and Management from official FAA records

Ownership: Publicly-owned
Owner: HOLMES CO ARPT AUTH
10 S CLAY ST
MILLERSBURG, OH 44654-1329
Phone 330-674-0674
Manager: LARRY CLARK
4501 TOWNSHIP ROAD 307
MILLERSBURG, OH 44654-9656
Phone 330-674-0674
CELL 330-231-3715.

Airport Operational Statistics

Aircraft based on the field: 13
Single engine airplanes: 12
Jet airplanes: 1
    
Aircraft operations: avg 59/day *
70% local general aviation
23% transient general aviation
5% military
2% air taxi
* for 12-month period ending 16 September 2019

Additional Remarks

DEER ON & INVOF ARPT.
FOR CD CTC INDIANAPOLIS ARTCC AT 317-247-2411.

Instrument Procedures

NOTE: All procedures below are presented as PDF files. If you need a reader for these files, you should download the free Adobe Reader.

NOT FOR NAVIGATION. Please procure official charts for flight.
FAA instrument procedures published for use from 11 August 2022 at 0901Z to 08 September 2022 at 0900z.

 
IAPs - Instrument Approach Procedures
RNAV (GPS) RWY 09   download (196KB)
RNAV (GPS) RWY 27   download (205KB)
NOTE: Special Take-Off Minimums/Departure Procedures apply   download (234KB)

Other nearby airports with instrument procedures:

I40 - Richard Downing Airport (14 nm S)
KBJJ - Wayne County Airport (21 nm N)
KPHD - Harry Clever Field Airport (25 nm E)
3G4 - Ashland County Airport (26 nm NW)
4I3 - Knox County Airport (29 nm SW)
 
Loc | Ops | Rwys | IFR | FBO | Links
Com | Nav | Svcs | Stats | Notes
Area around 10G (Holmes County Airport)
 
Road maps at: MapQuest Bing Google
 
Aerial photo
WARNING: Photo may not be current or correct
Aerial photo of 10G (Holmes County Airport)
Do you have a better or more recent aerial photo of Holmes County Airport that you would like to share? If so, please send us your photo.

 
Sectional chart

 
Airport distance calculator
Flying to Holmes County Airport? Find the distance to fly.

From to 10G

Sunrise and sunset
Times for 13-Aug-2022
 Local
(UTC-4)
 Zulu
(UTC)
Morning civil twilight06:0810:08
Sunrise06:3710:37
Sunset20:2800:28
Evening civil twilight20:5700:57

Current date and time
Zulu (UTC)  13-Aug-2022 12:22:22
Local (UTC-4)  13-Aug-2022 08:22:22
 
METAR
KBJJ 
20nm N 
131156Z AUTO 00000KT 10SM CLR 12/11 A3022 RMK AO2 SLP233 T01170106 10117 20089 53006
KPHD 
25nm E 
131153Z AUTO 00000KT 10SM CLR 13/12 A3021 RMK AO2 SLP228 T01330117 10133 20106 53004
K4I3 
29nm SW 
131155Z AUTO 01004KT 10SM CLR 14/11 A3022 RMK AO2
KMFD 
31nm NW 
131152Z 00000KT 10SM CLR 13/11 A3021 RMK AO2 SLP228 T01330111 10139 20111 53005
KCAK 
32nm NE 
131151Z 00000KT 10SM SCT100 BKN230 18/11 A3021 RMK AO2 SLP224 7//// T01780111 10178 20122 53005
KZZV 
35nm S 
131153Z AUTO 00000KT 10SM CLR 12/11 A3020 RMK AO2 SLP222 T01220111 10144 20117 51006
KAKR 
37nm NE 
131154Z AUTO 00000KT 10SM CLR 16/12 A3020 RMK AO2 SLP222 T01610122 10161 20117 53004
KCDI 
38nm SE 
131155Z AUTO 00000KT 10SM CLR 12/11 A3020 RMK AO2 T01150114 10118 20090
KVTA 
39nm SW 
131154Z AUTO 00000KT 10SM CLR 14/12 A3020 RMK AO2 SLP223 T01390122 10144 20111 53004
TAF
KMFD 
31nm NW 
131120Z 1312/1412 VRB04KT P6SM SCT100 BKN250 FM140000 09010KT P6SM SCT050 OVC100 FM140700 09012KT P6SM -SHRA SCT020 OVC050
KCAK 
32nm NE 
131120Z 1312/1412 VRB04KT P6SM SCT100 BKN250 FM140800 VRB05KT P6SM -SHRA SCT020 OVC050
KZZV 
35nm S 
131120Z 1312/1412 00000KT P6SM SCT250 FM131500 07004KT P6SM BKN250 FM141000 00000KT P6SM VCSH OVC060
NOTAMs
Click for the latest NOTAMs
NOTAMs are issued by the DoD/FAA and will open in a separate window not controlled by AirNav.

 

 
 

FBO, Fuel Providers, and Aircraft Ground Support

  
 Business Name 
 
 Contact 
 
 Services / Description 
 
Fuel Prices
 
Comments
  
Professionals Aviation Company Inc. 330-674-0674
no information available

If you are affiliated with Professionals Aviation Company Inc. and would like to show here your services, contact info, web link, logo, and more, click here
100LL Jet A
FS $7.20 $6.95 
 Updated 03-Aug-2022
 
   6 read write
FS=Full service
Update Fuel Prices
 

Would you like to see your business listed on this page?

 If your business provides an interesting product or service to pilots, flight crews, aircraft, or users of the Holmes County Airport, you should consider listing it here.  To start the listing process, click on the button below
 
Add a business
 

Other Pages about Holmes County Airport

Update a link
 
Copyright © AirNav, LLC. All rights reserved. Privacy Policy  Contact